K5RG-3 Weather Reports


Display with metric or nautical units.
time (UTC)temp
F
wind
direction
speed
MPH
gust
MPH
rain 1hr
in
rain 24hr
in
rain mn
in
humidity
%
barometer
mb
20260508130057 67 66 4.0 9.0 0.00 0.00 0.00 92 1010.9
20260508124601 68 59 2.0 9.0 0.00 0.00 0.00 92 1011.0
20260508123053 68 25 3.0 10.0 0.00 0.00 0.00 92 1011.2
20260508121551 68 48 4.0 9.0 0.00 0.00 0.00 93 1011.1
20260508120050 68 77 4.0 9.0 0.00 0.00 0.00 93 1010.5
20260508114549 68 62 3.0 8.0 0.00 0.00 0.00 93 1010.5
20260508113117 68 75 3.0 9.0 0.00 0.00 0.00 93 1010.7
20260508111547 69 24 2.0 6.0 0.00 0.00 0.00 93 1011.1
20260508110047 69 62 2.0 7.0 0.00 0.00 0.00 93 1010.8
20260508104554 69 106 2.0 8.0 0.00 0.00 0.00 93 1010.1
20260508103043 69 94 2.0 10.0 0.00 0.00 0.00 92 1010.3
20260508101544 70 68 6.0 10.0 0.00 0.00 0.00 92 1010.6
20260508100040 70 79 7.0 12.0 0.00 0.00 0.00 92 1010.4
20260508094536 71 75 7.0 12.0 0.00 0.00 0.00 91 1010.7
20260508093034 72 61 4.0 8.0 0.00 0.00 0.00 91 1010.6
20260508091533 72 100 4.0 8.0 0.00 0.00 0.00 90 1010.6
20260508090039 73 74 2.0 5.0 0.00 0.00 0.00 90 1010.6
20260508084529 73 96 1.0 4.0 0.00 0.00 0.00 89 1010.5
20260508083035 73 98 1.0 7.0 0.00 0.00 0.00 88 1010.7
20260508081526 73 112 0.0 3.0 0.00 0.00 0.00 87 1010.8
20260508080029 74 135 0.0 7.0 0.00 0.00 0.00 86 1010.6
20260508074526 74 98 0.0 7.0 0.00 0.00 0.00 85 1010.5
20260508073024 74 43 1.0 7.0 0.00 0.00 0.00 85 1010.8
20260508071515 75 107 1.0 6.0 0.00 0.00 0.00 85 1011.1
20260508070010 75 87 1.0 11.0 0.00 0.00 0.00 85 1010.9
20260508064529 75 100 5.0 12.0 0.00 0.00 0.00 85 1010.8
20260508063001 75 77 1.0 10.0 0.00 0.00 0.00 85 1011.0
20260508061602 75 94 2.0 6.0 0.00 0.00 0.00 85 1011.4
20260508060055 75 86 1.0 6.0 0.00 0.00 0.00 84 1011.2
20260508054615 75 113 1.0 7.0 0.00 0.00 0.00 83 1011.1
20260508053045 74 100 0.0 11.0 0.00 0.00 0.00 83 1010.5
20260508051543 75 84 3.0 10.0 0.00 0.00 0.00 82 1010.8
20260508050038 75 116 2.0 11.0 0.00 0.00 0.00 82 1010.7
20260508044535 75 111 2.0 12.0 0.00 0.00 0.00 82 1010.6
20260508043043 75 84 5.0 8.0 0.00 0.00 0.00 82 1011.0
20260508041536 75 124 4.0 10.0 0.00 0.00 0.00 81 1011.5
20260508040041 75 86 4.0 12.0 0.00 0.00 0.00 81 1012.1
20260508034535 75 90 6.0 12.0 0.00 0.00 0.00 81 1012.2
20260508033034 75 67 3.0 8.0 0.00 0.00 0.00 81 1012.1
20260508031532 76 97 5.0 11.0 0.00 0.00 0.00 80 1011.9
20260508030033 76 75 4.0 11.0 0.00 0.00 0.00 79 1011.7
20260508024531 76 90 6.0 10.0 0.00 0.00 0.00 78 1011.7
20260508023031 76 78 4.0 9.0 0.00 0.00 0.00 78 1011.7
20260508021530 76 73 6.0 10.0 0.00 0.00 0.00 78 1011.9
20260508020030 76 79 3.0 11.0 0.00 0.00 0.00 78 1011.4
20260508014531 76 66 2.0 10.0 0.00 0.00 0.00 78 1011.8
20260508013029 76 76 3.0 10.0 0.00 0.00 0.00 78 1011.7
20260508011535 76 39 3.0 8.0 0.00 0.00 0.00 79 1011.4
20260508010032 76 69 4.0 10.0 0.00 0.00 0.00 78 1011.3
20260508004537 76 73 4.0 10.0 0.00 0.00 0.00 78 1011.2
20260508003027 77 63 2.0 9.0 0.00 0.00 0.00 78 1011.1
20260508001529 77 71 2.0 11.0 0.00 0.00 0.00 78 1011.3
20260508000026 77 23 3.0 11.0 0.00 0.00 0.00 77 1011.3
20260507234532 77 51 7.0 11.0 0.00 0.00 0.00 77 1011.0
20260507233033 77 59 8.0 12.0 0.00 0.00 0.00 77 1011.0
20260507231525 78 83 3.0 11.0 0.00 0.00 0.00 77 1011.1
20260507230025 78 99 1.0 10.0 0.00 0.00 0.00 77 1011.2
20260507224525 78 81 7.0 13.0 0.00 0.00 0.00 77 1011.2
20260507223024 78 71 8.0 13.0 0.00 0.00 0.00 76 1011.1
20260507221522 78 84 7.0 10.0 0.00 0.00 0.00 77 1011.1
20260507220021 78 76 4.0 13.0 0.00 0.00 0.00 76 1011.2
20260507214526 77 66 6.0 12.0 0.00 0.00 0.00 77 1011.0
20260507213022 77 83 3.0 16.0 0.00 0.00 0.00 76 1011.2
20260507211523 78 90 5.0 13.0 0.00 0.00 0.00 75 1011.4
20260507210021 77 119 7.0 15.0 0.00 0.00 0.00 76 1011.5
20260507204519 77 69 5.0 10.0 0.00 0.00 0.00 76 1011.9
20260507203017 77 2 2.0 9.0 0.00 0.00 0.00 77 1011.9
20260507201516 76 13 2.0 7.0 0.00 0.00 0.00 77 1012.1
20260507200008 76 346 2.0 9.0 0.00 0.00 0.00 78 1012.3
20260507194506 75 31 3.0 10.0 0.00 0.00 0.00 77 1012.5
20260507193005 74 30 2.0 10.0 0.00 0.00 0.00 79 1012.6
20260507191508 73 20 4.0 12.0 0.00 0.00 0.00 79 1012.8
20260507190005 72 329 2.0 10.0 0.00 0.00 0.00 80 1012.8
20260507184504 72 340 3.0 9.0 0.00 0.00 0.00 80 1013.1
20260507183005 71 76 4.0 9.0 0.00 0.00 0.00 80 1013.2
20260507181504 71 347 4.0 10.0 0.00 0.00 0.00 80 1013.4
20260507180003 70 342 7.0 11.0 0.00 0.00 0.00 80 1013.4
20260507174636 70 20 3.0 11.0 0.00 0.00 0.00 81 1013.6
20260507173059 69 277 3.0 10.0 0.00 0.00 0.00 82 1013.7
20260507171610 68 90 3.0 10.0 0.00 0.00 0.00 83 1013.9
20260507170057 67 16 3.0 8.0 0.00 0.00 0.00 83 1013.6
20260507164556 66 42 4.0 11.0 0.00 0.00 0.00 84 1013.7
20260507163054 66 2 3.0 10.0 0.00 0.00 0.00 85 1013.9
20260507161553 65 333 5.0 10.0 0.00 0.00 0.00 85 1013.7
20260507160111 65 306 4.0 13.0 0.00 0.00 0.00 85 1013.7
20260507154548 65 29 6.0 11.0 0.00 0.00 0.00 85 1013.9
20260507153046 65 9 5.0 12.0 0.00 0.00 0.00 85 1013.9
20260507151548 65 102 3.0 9.0 0.00 0.00 0.00 86 1013.8
20260507150045 65 25 4.0 12.0 0.00 0.00 0.00 86 1013.7
20260507144544 65 334 6.0 14.0 0.00 0.00 0.00 85 1013.7
20260507143041 65 30 7.0 17.0 0.00 0.00 0.00 86 1013.4
20260507141540 65 6 4.0 11.0 0.00 0.00 0.00 86 1013.4
20260507140046 65 59 4.0 11.0 0.00 0.00 0.00 86 1013.3
20260507134536 65 332 7.0 14.0 0.00 0.00 0.00 86 1013.7
20260507133035 66 38 2.0 12.0 0.00 0.00 0.00 86 1013.9
20260507131600 66 20 5.0 10.0 0.00 0.00 0.00 86 1013.5